Snowfall_Accumulation
nan nan nan nan nan nan nan nan nan nan nan nan nan nan nan nan nan 0.0 0.0 0.0 0.0 nan nan 0.0 0.0 0.0 0.0 0.0 0.0 0.0 0.0 0.0 0.0 0.0 0.0 0.0 0.0 0.0 0.0 0.0 0.0 0.0 0.0 0.0 0.0
nan nan nan nan nan nan nan nan nan nan nan nan nan nan nan nan 0.0 0.0 nan nan nan nan 0.0 0.0 0.0 0.0 0.0 0.0 0.0 0.0 0.0 0.0 0.0 0.0 0.0 0.0 0.0 0.0 0.0 0.0 0.0 0.0 0.0 0.0 0.0
nan nan nan nan nan nan nan nan nan nan nan nan nan nan nan 0.0 0.0 0.0 nan nan nan 0.0 0.0 0.0 0.0 0.0 0.0 0.0 0.0 0.0 0.0 0.0 0.0 0.0 0.0 0.0 0.0 0.0 0.0 0.0 0.0 0.0 0.0 0.0 0.0
nan nan nan nan nan nan nan nan nan nan nan nan nan nan nan 0.0 0.0 0.0 nan nan nan 0.0 0.0 0.0 0.0 0.0 0.0 0.0 0.0 0.0 0.0 0.0 0.0 0.0 0.0 0.0 0.0 0.0 0.0 0.0 0.0 0.0 0.0 0.0 0.0
nan nan nan nan nan nan nan nan nan nan nan nan nan nan 0.0 0.0 0.0 0.0 nan nan 0.0 0.0 0.0 0.0 0.0 0.0 0.0 0.0 0.0 0.0 0.0 0.0 0.0 0.0 0.0 0.0 0.0 0.0 0.0 0.0 0.0 0.0 0.0 0.0 0.0
nan nan nan nan nan nan nan nan nan nan nan nan nan nan 0.0 0.0 0.0 0.0 0.0 0.0 0.0 0.0 0.0 0.0 0.0 0.0 0.0 0.0 0.0 0.0 0.0 0.0 0.0 0.0 0.0 0.0 0.0 0.0 0.0 0.0 0.0 0.0 0.0 0.0 0.0
nan nan nan nan nan nan nan nan nan nan nan nan nan 0.0 0.0 0.0 0.0 0.0 0.0 0.0 0.0 0.0 0.0 0.0 0.0 0.0 0.0 0.0 0.0 0.0 0.0 0.0 0.0 0.0 0.0 0.0 0.0 0.0 0.0 0.0 0.0 0.0 0.0 0.0 0.0
nan nan nan nan nan nan nan nan nan nan nan nan nan 0.0 0.0 0.0 0.0 0.0 0.0 0.0 0.0 0.0 0.0 0.0 0.0 0.0 0.0 0.0 0.0 0.0 0.0 0.0 0.0 0.0 0.0 0.0 0.0 0.0 0.0 0.0 0.0 0.0 0.0 0.0 0.0
nan nan nan nan nan nan nan nan nan nan nan nan 0.0 0.0 0.0 nan 0.0 0.0 0.0 0.0 0.0 0.0 0.0 0.0 0.0 0.0 0.0 0.0 0.0 0.0 0.0 0.0 0.0 0.0 0.0 0.0 0.0 0.0 0.0 0.0 0.0 0.0 0.0 0.0 0.0
nan nan nan nan nan nan nan nan nan nan 0.0 0.0 0.0 0.0 0.0 0.0 0.0 0.0 0.0 0.0 0.0 0.0 0.0 0.0 0.0 0.0 0.0 0.0 1.8 0.0 0.0 0.0 0.0 0.0 0.0 0.0 0.0 0.0 0.0 0.0 0.0 0.0 0.0 0.0 0.0
nan nan nan nan nan nan 0.0 0.0 0.0 0.0 0.0 0.0 0.0 0.0 0.0 0.0 0.0 0.0 0.0 0.0 0.0 0.0 0.0 0.0 0.2 0.3 0.0 0.0 0.0 0.0 0.0 0.0 0.0 0.0 0.0 0.0 0.0 0.0 0.0 0.0 0.0 0.0 0.0 0.0 0.0
nan nan nan nan nan nan 0.0 0.0 0.0 0.0 1.0 0.0 0.0 0.0 0.0 0.0 0.0 0.0 0.0 0.0 0.0 0.2 0.0 0.5 1.5 0.0 0.0 0.0 0.0 0.0 0.0 0.1 0.0 0.0 0.0 0.0 0.0 0.0 0.0 0.0 0.0 0.0 0.0 0.0 0.0
nan nan nan nan nan 0.0 0.0 0.0 0.0 0.0 2.1 0.0 0.0 0.0 0.0 0.0 0.0 0.0 0.0 0.1 0.2 0.6 0.4 1.3 0.4 0.0 0.0 0.0 0.0 0.0 0.1 0.0 0.0 0.0 0.0 0.0 0.2 0.0 0.0 0.0 0.0 0.0 0.0 0.0 0.0
nan nan nan nan nan 0.0 0.0 0.0 0.0 0.0 11.5 1.3 0.0 0.0 0.0 0.0 0.0 0.0 0.0 0.0 0.2 1.9 0.2 1.6 0.0 0.1 1.0 0.4 0.0 0.5 0.0 0.0 0.0 1.9 2.6 0.1 8.9 0.0 0.0 0.0 0.0 0.0 0.0 0.0 0.0
nan nan nan nan 0.0 0.0 0.0 0.0 0.0 0.1 52.5 0.0 0.0 0.0 0.0 0.7 0.1 0.0 0.0 0.0 1.1 0.3 3.5 3.5 0.5 0.2 2.1 0.6 0.0 1.2 0.0 0.0 0.1 1.6 2.5 1.0 6.7 0.0 0.0 0.0 0.0 0.0 0.0 0.0 0.0
nan nan nan 0.0 0.0 0.0 0.0 0.0 0.0 25.3 44.0 0.3 0.0 0.0 0.1 0.0 0.1 0.0 0.0 0.0 0.0 1.7 1.3 0.5 0.0 2.3 1.6 0.2 0.0 0.0 0.6 0.6 2.2 4.5 30.5 1.1 0.6 0.2 0.1 0.2 0.0 0.0 0.0 0.0 0.0
nan nan nan 0.0 0.0 0.0 0.0 0.0 37.1 64.4 0.2 0.1 0.3 0.1 0.2 0.6 0.8 1.2 1.2 3.7 8.0 17.6 8.2 1.7 1.4 0.2 0.0 4.3 3.6 2.2 5.0 27.4 33.4 39.7 15.0 0.1 0.6 0.2 0.1 0.1 0.1 0.0 0.0 0.0 0.0
nan nan nan 0.0 0.0 0.0 0.0 4.4 64.6 9.1 2.0 0.0 0.0 0.0 1.8 0.2 1.1 2.8 4.2 5.0 0.9 5.0 7.2 5.8 9.7 1.7 0.1 0.8 3.3 3.0 3.9 9.4 13.5 9.8 2.4 0.1 9.5 1.2 0.2 0.2 0.7 0.3 0.5 0.0 0.0
nan 0.0 0.0 0.0 0.0 0.0 1.9 52.5 20.7 0.9 0.2 0.4 1.0 1.8 0.9 0.5 1.9 1.8 2.0 2.7 1.7 1.3 15.5 9.5 2.7 0.1 0.2 0.1 0.0 7.9 16.2 1.7 12.6 7.9 10.7 2.0 0.2 0.1 0.0 0.4 0.5 1.3 0.0 0.0 0.0
0.0 0.0 0.0 0.0 0.0 0.2 15.7 nan 4.6 0.0 0.5 1.5 5.5 3.0 6.5 3.5 4.0 2.3 2.3 1.4 2.0 0.8 1.2 5.7 11.4 0.3 0.6 1.1 1.1 1.5 0.2 13.5 20.5 27.7 13.4 2.1 0.8 3.1 1.6 2.9 0.3 1.8 0.1 0.1 0.0
0.0 1.7 0.0 0.0 0.0 4.0 30.6 11.1 1.6 0.0 0.2 6.3 4.9 5.2 2.0 5.3 1.5 3.1 1.3 0.3 0.2 0.3 0.4 8.5 12.9 6.0 2.3 10.1 6.0 5.1 5.8 3.8 2.4 9.1 16.8 8.8 6.6 8.7 3.3 3.3 4.5 0.9 0.2 0.3 0.2
0.3 11.3 0.0 0.0 10.8 9.7 12.8 3.6 nan 0.3 0.2 1.3 1.2 2.2 4.1 4.1 4.6 1.6 0.7 0.2 0.0 0.1 6.0 3.1 9.8 17.1 10.7 5.0 0.7 0.4 2.7 1.2 11.0 8.9 6.1 9.3 8.5 5.8 5.8 5.8 2.5 0.7 0.3 0.2 0.3
5.5 0.8 0.0 0.0 30.9 15.5 3.9 3.3 0.9 1.2 1.3 5.4 3.8 1.4 2.5 7.9 13.8 1.5 0.5 0.2 0.0 0.6 3.5 6.5 14.3 17.1 12.8 8.0 3.5 8.3 2.1 2.2 1.8 3.5 10.3 12.7 9.0 5.2 5.7 4.0 1.8 2.4 0.8 0.6 0.6
3.8 12.2 3.2 0.4 0.6 6.8 6.5 4.7 5.8 1.1 1.9 1.3 2.0 0.5 5.7 6.9 2.2 5.9 0.8 0.3 0.1 0.2 nan nan 7.0 13.1 13.5 11.4 8.4 10.2 5.1 3.1 2.9 20.7 9.2 11.7 9.0 7.7 6.3 6.0 3.4 2.2 1.4 2.2 3.8
3.6 12.2 12.0 24.5 5.4 2.0 3.1 2.9 2.1 6.7 2.5 0.9 5.1 4.1 6.8 12.5 7.4 7.5 0.9 1.0 1.0 nan 1.3 5.4 11.3 7.1 7.4 7.2 10.9 10.5 8.6 5.6 12.6 10.4 13.6 12.4 13.0 10.7 9.6 9.6 9.5 7.2 5.3 5.5 7.3
6.1 5.9 6.0 6.1 0.8 1.4 1.9 3.2 0.7 1.4 4.9 3.9 6.6 2.6 5.3 10.3 4.0 11.3 1.6 0.7 0.5 1.8 2.5 3.4 9.1 6.5 8.3 6.7 9.7 9.4 5.8 5.0 4.3 3.4 7.0 8.7 12.2 12.0 13.6 12.5 12.5 12.8 10.6 12.1 12.4
0.5 1.4 5.8 nan 1.1 5.4 1.8 1.2 1.1 1.0 0.1 0.0 0.8 3.0 5.3 3.2 1.7 0.7 0.9 1.2 1.6 3.5 3.0 4.7 7.8 11.6 19.2 5.4 4.8 15.1 18.2 8.9 11.8 8.3 5.5 13.6 15.1 17.5 19.3 16.0 15.1 14.7 15.0 14.4 14.6
Water_Equivalent
nan nan nan nan nan nan nan nan nan nan nan nan nan nan nan nan nan 0.00 0.00 0.00 0.00 nan nan 0.00 0.00 0.00 0.00 0.00 0.00 0.00 0.00 0.00 0.00 0.00 0.00 0.00 0.00 0.00 0.00 0.00 0.00 0.00 0.00 0.00 0.00
nan nan nan nan nan nan nan nan nan nan nan nan nan nan nan nan 0.00 0.00 nan nan nan nan 0.00 0.00 0.00 0.00 0.00 0.00 0.00 0.00 0.00 0.00 0.00 0.00 0.00 0.00 0.00 0.00 0.00 0.00 0.00 0.00 0.00 0.00 0.00
nan nan nan nan nan nan nan nan nan nan nan nan nan nan nan 0.00 0.00 0.00 nan nan nan 0.00 0.00 0.00 0.00 0.00 0.00 0.00 0.00 0.00 0.00 0.00 0.00 0.00 0.00 0.00 0.00 0.00 0.00 0.00 0.00 0.00 0.00 0.00 0.00
nan nan nan nan nan nan nan nan nan nan nan nan nan nan nan 0.00 0.00 0.00 nan nan nan 0.00 0.00 0.00 0.00 0.00 0.00 0.00 0.00 0.00 0.00 0.00 0.00 0.00 0.00 0.00 0.00 0.00 0.00 0.00 0.00 0.00 0.00 0.00 0.00
nan nan nan nan nan nan nan nan nan nan nan nan nan nan 0.00 0.00 0.00 0.00 nan nan 0.00 0.00 0.00 0.00 0.00 0.00 0.00 0.00 0.00 0.00 0.00 0.00 0.00 0.00 0.00 0.00 0.00 0.00 0.00 0.00 0.00 0.00 0.00 0.00 0.00
nan nan nan nan nan nan nan nan nan nan nan nan nan nan 0.00 0.00 0.00 0.00 0.00 0.00 0.00 0.00 0.00 0.00 0.00 0.00 0.00 0.00 0.00 0.00 0.00 0.00 0.00 0.00 0.00 0.00 0.00 0.00 0.00 0.00 0.00 0.00 0.00 0.00 0.00
nan nan nan nan nan nan nan nan nan nan nan nan nan 0.00 0.00 0.00 0.00 0.00 0.00 0.00 0.00 0.00 0.00 0.00 0.00 0.00 0.00 0.00 0.00 0.00 0.00 0.00 0.00 0.00 0.00 0.00 0.00 0.00 0.00 0.00 0.00 0.00 0.00 0.00 0.00
nan nan nan nan nan nan nan nan nan nan nan nan nan 0.00 0.00 0.00 0.00 0.00 0.00 0.00 0.00 0.00 0.00 0.00 0.00 0.00 0.00 0.00 0.00 0.00 0.00 0.00 0.00 0.00 0.00 0.00 0.00 0.00 0.00 0.00 0.00 0.00 0.00 0.00 0.00
nan nan nan nan nan nan nan nan nan nan nan nan 0.00 0.00 0.00 nan 0.00 0.00 0.00 0.00 0.00 0.00 0.00 0.00 0.00 0.00 0.00 0.00 0.01 0.00 0.00 0.00 0.00 0.00 0.00 0.00 0.00 0.00 0.00 0.00 0.00 0.00 0.00 0.00 0.00
nan nan nan nan nan nan nan nan nan nan 0.00 0.00 0.00 0.00 0.00 0.00 0.00 0.00 0.00 0.00 0.00 0.00 0.00 0.00 0.00 0.00 0.00 0.00 0.48 0.00 0.00 0.00 0.00 0.00 0.00 0.00 0.00 0.00 0.00 0.00 0.00 0.00 0.00 0.00 0.00
nan nan nan nan nan nan 0.00 0.00 0.00 0.00 0.00 0.00 0.00 0.00 0.00 0.00 0.00 0.00 0.00 0.00 0.00 0.00 0.00 0.00 0.03 0.07 0.00 0.00 0.00 0.00 0.00 0.00 0.00 0.00 0.00 0.00 0.00 0.00 0.00 0.00 0.00 0.00 0.00 0.00 0.00
nan nan nan nan nan nan 0.00 0.00 0.00 0.00 0.17 0.00 0.00 0.00 0.00 0.00 0.00 0.00 0.00 0.00 0.00 0.04 0.00 0.10 0.22 0.00 0.00 0.00 0.00 0.00 0.00 0.02 0.00 0.00 0.00 0.00 0.00 0.00 0.00 0.00 0.00 0.00 0.00 0.00 0.00
nan nan nan nan nan 0.00 0.00 0.00 0.00 0.00 0.39 0.00 0.00 0.00 0.00 0.00 0.00 0.00 0.00 0.02 0.04 0.11 0.10 0.20 0.09 0.00 0.00 0.00 0.00 0.00 0.01 0.00 0.00 0.00 0.00 0.00 0.04 0.00 0.00 0.00 0.00 0.00 0.00 0.00 0.00
nan nan nan nan nan 0.00 0.00 0.00 0.00 0.00 2.15 0.27 0.00 0.00 0.00 0.00 0.01 0.00 0.00 0.01 0.03 0.36 0.04 0.34 0.01 0.02 0.14 0.06 0.00 0.10 0.00 0.00 0.00 0.38 0.40 0.03 1.21 0.00 0.00 0.00 0.00 0.00 0.00 0.00 0.00
nan nan nan nan 0.00 0.00 0.00 0.00 0.00 0.01 8.42 0.00 0.00 0.00 0.00 0.11 0.04 0.01 0.00 0.00 0.20 0.05 0.65 0.59 0.10 0.03 0.39 0.08 0.00 0.25 0.00 0.00 0.02 0.34 0.38 0.16 0.91 0.00 0.00 0.00 0.00 0.00 0.00 0.00 0.00
nan nan nan 0.00 0.00 0.00 0.00 0.00 0.00 5.78 8.20 0.06 0.00 0.01 0.02 0.00 0.02 0.00 0.00 0.00 0.00 0.34 0.27 0.10 0.00 0.41 0.30 0.03 0.00 0.01 0.11 0.11 0.40 0.71 4.27 0.18 0.10 0.03 0.03 0.04 0.00 0.00 0.00 0.00 0.00
nan nan nan 0.00 0.01 0.00 0.00 0.00 9.24 14.60 0.07 0.02 0.10 0.02 0.05 0.13 0.20 0.37 0.26 0.68 1.22 2.59 1.07 0.32 0.27 0.05 0.00 0.70 0.69 0.41 0.75 3.90 5.04 5.81 2.13 0.02 0.10 0.04 0.01 0.01 0.02 0.01 0.00 0.01 0.00
nan nan nan 0.00 0.00 0.00 0.00 0.70 15.45 2.77 0.52 0.00 0.01 0.01 0.29 0.04 0.20 0.55 0.85 0.73 0.18 0.94 1.16 0.97 1.72 0.29 0.03 0.15 0.56 0.47 0.61 1.30 1.41 1.18 0.42 0.01 1.32 0.24 0.04 0.05 0.14 0.06 0.10 0.00 0.00
nan 0.00 0.00 0.00 0.00 0.00 0.39 13.26 5.41 0.23 0.04 0.05 0.12 0.29 0.18 0.08 0.35 0.30 0.35 0.54 0.30 0.24 2.22 1.43 0.48 0.03 0.04 0.03 0.01 1.20 2.19 0.28 1.52 1.02 1.11 0.39 0.04 0.02 0.01 0.08 0.09 0.21 0.00 0.00 0.00
0.00 0.00 0.00 0.00 0.00 0.08 3.66 nan 1.68 0.01 0.07 0.22 0.73 0.44 1.26 0.57 0.58 0.33 0.33 0.23 0.29 0.14 0.21 0.94 1.62 0.05 0.11 0.24 0.22 0.27 0.04 1.66 2.97 3.21 1.42 0.31 0.13 0.54 0.25 0.43 0.05 0.27 0.03 0.02 0.01
0.01 0.41 0.00 0.00 0.00 0.70 8.57 3.45 0.50 0.00 0.03 1.06 0.90 0.72 0.30 0.98 0.22 0.43 0.20 0.05 0.04 0.06 0.09 1.63 1.92 0.84 0.35 2.04 1.20 0.79 0.85 0.56 0.37 1.25 1.92 0.99 1.06 1.80 0.44 0.43 0.51 0.14 0.04 0.05 0.03
0.08 3.57 0.00 0.00 3.10 3.29 3.69 1.15 nan 0.07 0.04 0.20 0.17 0.35 0.71 0.76 0.71 0.24 0.13 0.03 0.00 0.02 1.00 0.57 1.53 2.33 1.86 1.01 0.13 0.08 0.52 0.21 1.72 1.17 0.91 1.21 1.00 1.04 0.74 0.73 0.35 0.10 0.06 0.04 0.05
1.05 0.18 0.00 0.00 8.37 4.90 1.24 0.60 0.17 0.23 0.25 0.76 0.58 0.22 0.45 1.39 2.15 0.28 0.08 0.04 0.00 0.12 0.57 1.12 1.92 2.48 1.96 1.23 0.52 1.19 0.34 0.38 0.25 0.58 1.41 1.78 1.27 0.74 0.73 0.59 0.29 0.35 0.14 0.10 0.11
0.73 3.36 1.12 0.14 0.18 1.02 1.14 0.94 1.19 0.20 0.30 0.21 0.28 0.09 0.94 1.22 0.38 1.06 0.14 0.06 0.03 0.05 nan nan 0.96 1.56 1.74 1.70 1.46 1.29 0.67 0.44 0.43 3.44 1.49 1.33 1.18 1.01 0.79 0.78 0.50 0.39 0.21 0.32 0.51
0.70 3.49 4.66 7.65 1.59 0.34 0.49 0.49 0.42 1.15 0.39 0.19 0.80 0.73 1.03 1.73 1.08 1.19 0.15 0.17 0.19 nan 0.29 0.94 1.64 0.81 0.95 0.95 1.59 1.57 1.09 0.64 1.43 1.34 1.70 1.51 1.30 1.33 1.22 1.15 1.18 1.03 0.71 0.64 0.84
0.96 1.04 1.23 1.84 0.12 0.23 0.34 0.50 0.11 0.23 0.70 0.64 1.04 0.48 0.87 1.48 0.71 1.63 0.25 0.10 0.07 0.32 0.41 0.56 1.60 0.73 1.11 0.93 1.36 1.29 0.73 0.66 0.51 0.44 0.87 1.08 1.36 1.77 1.65 1.45 1.51 1.64 1.16 1.17 1.30
0.10 0.27 0.96 nan 0.26 1.04 0.39 0.17 0.17 0.18 0.02 0.00 0.12 0.50 0.76 0.55 0.32 0.13 0.18 0.23 0.29 0.54 0.45 0.71 1.07 2.33 3.85 0.66 0.57 2.74 2.08 1.05 1.40 1.10 0.72 1.42 2.53 2.64 2.58 1.78 1.83 1.67 1.55 1.56 1.90
SL_Ratio
nan nan nan nan nan nan nan nan nan nan nan nan nan nan nan nan nan nan nan nan nan nan nan nan nan nan nan nan nan nan nan nan nan nan nan nan nan nan nan nan nan nan nan nan nan
nan nan nan nan nan nan nan nan nan nan nan nan nan nan nan nan nan nan nan nan nan nan nan nan nan nan nan nan nan nan nan nan nan nan nan nan nan nan nan nan nan nan nan nan nan
nan nan nan nan nan nan nan nan nan nan nan nan nan nan nan nan nan nan nan nan nan nan nan nan nan nan nan nan nan nan nan nan nan nan nan nan nan nan nan nan nan nan nan nan nan
nan nan nan nan nan nan nan nan nan nan nan nan nan nan nan nan nan nan nan nan nan nan nan nan nan nan nan nan nan nan nan nan nan nan nan nan nan nan nan nan nan nan nan nan nan
nan nan nan nan nan nan nan nan nan nan nan nan nan nan nan nan nan nan nan nan nan nan nan nan nan nan nan nan nan nan nan nan nan nan nan nan nan nan nan nan nan nan nan nan nan
nan nan nan nan nan nan nan nan nan nan nan nan nan nan nan 5.0 nan nan nan nan nan nan nan nan nan nan nan nan nan nan nan nan nan nan nan nan nan nan nan nan nan nan nan nan nan
nan nan nan nan nan nan nan nan nan nan nan nan nan nan nan nan nan nan nan nan nan nan nan nan nan nan nan nan nan nan nan nan nan nan nan nan nan nan nan nan nan nan nan nan nan
nan nan nan nan nan nan nan nan nan nan nan nan nan nan nan nan nan nan nan nan nan nan nan nan nan nan nan nan nan nan nan nan nan nan nan nan 0.0 nan nan nan nan nan nan nan nan
nan nan nan nan nan nan nan nan nan nan nan nan nan nan nan nan nan nan nan nan nan nan nan nan nan nan nan nan 3.6 nan nan nan nan nan nan nan nan nan nan nan nan nan nan nan nan
nan nan nan nan nan nan nan nan nan nan nan nan nan nan nan nan nan nan nan nan nan nan nan nan nan nan nan nan 3.7 2.5 5.0 nan nan nan nan nan nan nan nan nan nan nan nan nan nan
nan nan nan nan nan nan nan nan nan nan nan nan nan nan nan nan nan nan nan nan nan nan 2.0 nan 6.3 4.7 5.0 nan nan nan nan nan nan nan nan nan nan nan nan nan nan nan nan nan nan
nan nan nan nan nan nan nan nan nan 5.0 6.2 nan nan nan nan nan nan nan nan nan nan 4.5 6.0 5.2 6.8 5.0 nan nan nan nan 5.0 4.3 nan nan 0.0 nan nan nan nan nan nan nan nan nan nan
nan nan nan nan nan nan nan nan nan nan 5.4 nan nan nan nan nan nan nan nan 5.9 5.8 5.4 4.4 6.3 5.0 nan nan nan 5.0 6.0 6.0 5.0 nan nan nan 5.0 4.7 4.0 nan nan nan nan nan nan nan
nan nan nan nan nan nan nan nan nan nan 5.3 4.8 nan nan nan nan 5.4 nan nan 6.3 6.1 5.4 4.4 4.6 4.0 6.5 7.4 7.2 nan 5.1 nan nan 4.0 5.1 6.4 4.3 7.3 nan nan nan nan nan nan nan nan
nan nan nan nan nan nan nan nan nan 6.0 6.2 nan nan nan nan 6.0 4.1 5.8 nan 5.0 5.4 6.2 5.4 5.8 4.6 5.7 5.5 6.8 5.0 4.9 nan 2.5 4.1 4.8 6.6 6.6 7.3 5.0 nan nan nan nan nan nan nan
nan nan nan nan nan nan nan nan 5.0 4.4 5.4 5.1 nan 4.6 4.6 5.0 4.2 5.0 5.0 nan nan 4.9 4.8 5.6 nan 5.6 5.4 5.7 nan 4.3 5.1 5.3 5.4 6.3 7.1 6.4 5.8 5.4 5.0 4.8 nan nan nan nan nan
nan nan nan nan 3.1 nan nan 0.0 4.0 4.4 3.6 5.7 3.2 5.3 4.3 4.5 4.2 3.3 4.6 5.4 6.6 6.8 7.6 5.5 5.4 4.6 5.0 6.2 5.2 5.5 6.7 7.0 6.6 6.8 7.0 4.9 5.8 5.6 4.8 4.3 4.4 4.6 nan 4.1 nan
nan nan nan nan nan nan 3.8 6.2 4.2 3.3 3.9 nan 5.6 7.2 6.1 5.3 5.7 5.1 4.9 6.8 4.9 5.4 6.2 6.0 5.6 5.8 3.9 5.6 5.9 6.4 6.4 7.2 9.6 8.3 5.8 5.0 7.2 5.0 4.5 4.5 5.1 5.2 4.6 3.8 nan
nan nan nan nan nan nan 4.8 4.0 3.8 3.8 5.6 8.4 8.3 6.2 4.9 5.6 5.6 6.1 5.8 5.1 5.7 5.5 7.0 6.6 5.5 4.8 4.2 3.6 3.8 6.6 7.4 6.0 8.3 7.7 9.7 5.0 5.7 4.7 4.3 5.2 5.8 6.2 nan 5.0 5.0
nan nan nan nan nan 2.8 4.3 nan 2.8 4.3 6.5 6.9 7.6 6.9 5.1 6.2 6.9 7.0 6.9 6.1 6.8 5.8 5.9 6.1 7.0 5.6 5.7 4.6 4.9 5.6 5.3 8.1 6.9 8.6 9.4 6.9 6.3 5.8 6.6 6.9 6.8 6.8 5.4 4.2 3.7
2.2 4.1 nan nan nan 5.7 3.6 3.2 3.2 nan 5.1 6.0 5.5 7.2 6.6 5.4 6.7 7.1 6.5 6.4 4.3 4.9 4.7 5.2 6.7 7.2 6.4 5.0 5.0 6.4 6.8 6.7 6.6 7.3 8.8 8.9 6.2 4.9 7.4 7.8 8.7 6.2 5.6 5.5 5.1
4.0 3.2 nan nan 3.5 3.0 3.5 3.2 nan 4.2 4.1 6.4 7.1 6.5 5.8 5.4 6.4 6.8 5.8 5.4 0.0 4.5 6.0 5.4 6.4 7.4 5.8 4.9 5.3 5.4 5.1 5.7 6.4 7.6 6.7 7.7 8.5 5.6 7.8 8.0 7.2 6.5 5.6 4.9 5.0
5.3 4.2 5.0 nan 3.7 3.2 3.1 5.6 5.5 5.5 5.0 7.1 6.5 6.3 5.5 5.7 6.4 5.5 6.0 4.7 5.0 5.3 6.1 5.8 7.4 6.9 6.5 6.5 6.8 7.0 6.2 5.8 7.0 6.0 7.3 7.1 7.1 7.0 7.8 6.8 6.4 6.9 6.0 5.5 5.2
5.2 3.6 2.9 3.2 3.2 6.7 5.7 5.0 4.9 5.6 6.3 6.2 7.2 6.1 6.1 5.6 5.8 5.6 5.9 5.0 4.3 4.1 nan nan 7.2 8.4 7.7 6.7 5.8 7.9 7.5 7.1 6.7 6.0 6.2 8.8 7.6 7.6 8.0 7.7 6.7 5.7 6.3 7.0 7.4
5.2 3.5 2.6 3.2 3.4 5.9 6.4 5.9 5.1 5.8 6.3 4.8 6.3 5.6 6.6 7.2 6.9 6.3 6.0 5.9 5.3 nan 4.5 5.7 6.9 8.8 7.8 7.6 6.8 6.7 7.9 8.6 8.8 7.8 8.0 8.2 10.0 8.0 7.8 8.3 8.1 7.0 7.5 8.6 8.7
6.4 5.6 4.8 3.3 6.4 5.8 5.7 6.3 6.4 5.9 7.0 6.1 6.3 5.4 6.1 7.0 5.7 6.9 6.3 6.3 6.3 5.6 6.1 6.1 5.7 8.8 7.4 7.2 7.1 7.3 8.0 7.6 8.4 7.9 8.1 8.0 9.0 6.7 8.2 8.6 8.3 7.8 9.1 10.3 9.5
4.9 5.0 6.1 nan 4.4 5.1 4.6 6.8 6.7 5.8 3.9 6.7 6.9 6.0 7.0 5.8 5.4 5.4 5.2 5.3 5.6 6.4 6.8 6.7 7.3 5.0 5.0 8.2 8.5 5.5 8.7 8.5 8.4 7.6 7.7 9.6 6.0 6.6 7.5 9.0 8.3 8.8 9.7 9.3 7.7